GW3985 Weather Reports


time (UTC)temp
C
wind
direction
speed
KPH
gust
KPH
rain 1hr
cm
rain 24hr
cm
rain mn
cm
humidity
%
barometer
mb
20260510155515 12 238 0.0 3.2 0.00 0.00 0.00 67 1029.3
20260510154515 11 138 1.6 6.4 0.00 0.00 0.00 69 1029.4
20260510153516 11 138 0.0 3.2 0.00 0.00 0.00 71 1029.4
20260510152536 11 139 3.2 9.7 0.00 0.00 0.00 71 1029.4
20260510151536 10 269 0.0 4.8 0.00 0.00 0.00 73 1029.5
20260510150517 10 218 0.0 1.6 0.00 0.00 0.00 75 1029.5
20260510145517 10 200 0.0 4.8 0.00 0.00 0.00 75 1029.4
20260510144515 10 174 0.0 3.2 0.00 0.00 0.00 75 1029.5
20260510143535 9 239 0.0 3.2 0.00 0.00 0.00 78 1029.5
20260510142516 9 0.0 0.0 0.00 0.00 0.00 79 1029.5
20260510141516 8 0.0 0.0 0.00 0.00 0.00 81 1029.5
20260510140557 8 305 0.0 1.6 0.00 0.00 0.00 82 1029.4
20260510135517 8 305 0.0 1.6 0.00 0.00 0.00 83 1029.4
20260510134514 8 0.0 0.0 0.00 0.00 0.00 84 1029.5
20260510133535 8 0.0 0.0 0.00 0.00 0.00 85 1029.5
20260510132516 8 0.0 0.0 0.00 0.00 0.00 85 1029.4
20260510131516 7 0.0 0.0 0.00 0.00 0.00 85 1029.4
20260510130536 7 0.0 0.0 0.00 0.00 0.00 86 1029.4
20260510125516 7 0.0 0.0 0.00 0.00 0.00 86 1029.3
20260510124517 7 0.0 0.0 0.00 0.00 0.00 87 1029.3
20260510123535 7 0.0 0.0 0.00 0.00 0.00 88 1029.1
20260510122515 7 0.0 0.0 0.00 0.00 0.00 88 1029.0
20260510121535 7 0.0 0.0 0.00 0.00 0.00 87 1028.8
20260510120516 7 0.0 0.0 0.00 0.00 0.00 88 1028.8
20260510115516 7 0.0 0.0 0.00 0.00 0.00 88 1028.7
20260510114517 7 0.0 0.0 0.00 0.00 0.00 88 1028.7
20260510113517 7 305 0.0 1.6 0.00 0.00 0.00 88 1028.7
20260510112515 7 306 0.0 3.2 0.00 0.00 0.00 87 1028.7
20260510111515 7 0.0 0.0 0.00 0.00 0.00 87 1028.7
20260510110516 7 0.0 0.0 0.00 0.00 0.00 86 1028.6
20260510105536 7 0.0 0.0 0.00 0.00 0.00 87 1028.5
20260510104516 7 0.0 0.0 0.00 0.00 0.00 86 1028.5
20260510103516 7 0.0 0.0 0.00 0.00 0.00 86 1028.4
20260510102517 7 0.0 0.0 0.00 0.00 0.00 86 1028.3
20260510101515 7 0.0 0.0 0.00 0.00 0.00 86 1028.1
20260510100515 7 0.0 0.0 0.00 0.00 0.00 86 1028.1
20260510095517 7 0.0 0.0 0.00 0.00 0.00 85 1028.1
20260510094516 7 0.0 0.0 0.00 0.00 0.00 85 1028.1
20260510093517 7 0.0 0.0 0.00 0.00 0.00 85 1028.0
20260510092517 7 306 0.0 1.6 0.00 0.00 0.00 85 1027.9
20260510091517 7 306 0.0 1.6 0.00 0.00 0.00 85 1027.8
20260510090515 7 0.0 0.0 0.00 0.00 0.00 84 1027.7
20260510085515 7 0.0 0.0 0.00 0.00 0.00 82 1027.7
20260510084516 7 0.0 0.0 0.00 0.00 0.00 81 1027.8
20260510083536 7 0.0 0.0 0.00 0.00 0.00 80 1027.8
20260510082536 7 0.0 0.0 0.00 0.00 0.00 80 1027.8
20260510081516 7 9 0.0 1.6 0.00 0.00 0.00 80 1027.7
20260510080517 7 9 0.0 1.6 0.00 0.00 0.00 80 1027.7
20260510075515 7 341 0.0 1.6 0.00 0.00 0.00 80 1027.6
20260510074515 7 337 0.0 1.6 0.00 0.00 0.00 81 1027.6
20260510073515 7 292 0.0 1.6 0.00 0.00 0.00 81 1027.6
20260510072516 7 0.0 0.0 0.00 0.00 0.00 82 1027.8
20260510071516 7 292 0.0 1.6 0.00 0.00 0.00 82 1028.0
20260510070517 7 52 0.0 3.2 0.00 0.00 0.00 81 1028.1
20260510065517 7 336 0.0 1.6 0.00 0.00 0.00 80 1028.1
20260510064515 7 251 0.0 1.6 0.00 0.00 0.00 80 1028.0
20260510063515 7 348 0.0 1.6 0.00 0.00 0.00 81 1028.1
20260510062515 7 341 0.0 1.6 0.00 0.00 0.00 81 1028.2
20260510061516 7 348 0.0 1.6 0.00 0.00 0.00 82 1028.1
20260510060536 7 38 0.0 3.2 0.00 0.00 0.00 81 1027.9
20260510055517 7 45 1.6 6.4 0.00 0.00 0.00 81 1027.8
20260510054515 8 65 0.0 6.4 0.00 0.00 0.00 81 1027.7
20260510053515 8 47 0.0 3.2 0.00 0.00 0.00 81 1027.7
20260510052515 8 57 0.0 3.2 0.00 0.00 0.00 81 1027.5
20260510051536 8 24 0.0 11.3 0.00 0.00 0.00 81 1027.5
20260510050556 8 34 1.6 8.0 0.00 0.00 0.00 80 1027.7
20260510045516 8 357 1.6 8.0 0.00 0.00 0.00 80 1027.5
20260510044517 8 52 0.0 3.2 0.00 0.00 0.00 79 1027.3
20260510043515 8 44 0.0 3.2 0.00 0.00 0.00 78 1027.6
20260510042515 8 282 0.0 3.2 0.00 0.00 0.00 78 1027.4
20260510041515 9 316 0.0 3.2 0.00 0.00 0.00 78 1027.2
20260510040536 9 299 1.6 6.4 0.00 0.00 0.00 77 1027.9
20260510035536 9 46 1.6 16.1 0.00 0.00 0.00 77 1027.9
20260510034516 9 26 1.6 6.4 0.00 0.00 0.00 77 1027.6
20260510033537 9 337 3.2 12.9 0.00 0.00 0.00 77 1027.4
20260510032515 9 331 1.6 12.9 0.00 0.00 0.00 76 1027.1
20260510031515 10 289 3.2 9.7 0.00 0.00 0.00 75 1026.6
20260510030516 10 281 1.6 6.4 0.00 0.00 0.00 74 1026.1
20260510025516 10 239 3.2 12.9 0.00 0.00 0.00 73 1025.5
20260510024516 10 328 4.8 16.1 0.00 0.00 0.00 72 1025.0
20260510023516 10 304 1.6 6.4 0.00 0.00 0.00 71 1024.7
20260510022517 11 20 3.2 16.1 0.00 0.00 0.00 69 1023.9
20260510021515 12 320 3.2 16.1 0.00 0.00 0.00 64 1022.9
20260510020515 13 354 3.2 17.7 0.00 0.00 0.00 57 1022.1
20260510015515 14 288 4.8 14.5 0.00 0.00 0.00 52 1021.3
20260510014516 16 317 6.4 17.7 0.00 0.00 0.00 47 1021.1
20260510013516 18 352 6.4 20.9 0.00 0.00 0.00 41 1020.2
20260510012517 18 12 0.0 1.6 0.00 0.00 0.00 37 1019.1
20260510011517 19 188 0.0 3.2 0.00 0.00 0.00 36 1019.0
20260510010515 20 270 0.0 3.2 0.00 0.00 0.00 33 1018.7
20260510005515 20 0.0 0.0 0.00 0.00 0.00 32 1018.5
20260510004516 20 0.0 0.0 0.00 0.00 0.00 30 1018.3
20260510003516 21 103 0.0 3.2 0.00 0.00 0.00 29 1018.2
20260510002516 21 109 0.0 4.8 0.00 0.00 0.00 29 1018.1
20260510001517 21 125 0.0 1.6 0.00 0.00 0.00 29 1018.0
20260510000514 21 95 0.0 1.6 0.00 0.00 0.00 28 1018.1
20260509235515 21 136 0.0 3.2 0.00 0.00 0.00 28 1018.0
20260509234515 21 133 1.6 4.8 0.00 0.00 0.00 29 1017.9
20260509233516 21 101 0.0 1.6 0.00 0.00 0.00 28 1018.1
20260509232516 21 101 0.0 1.6 0.00 0.00 0.00 28 1018.1
20260509231517 21 101 0.0 1.6 0.00 0.00 0.00 28 1018.0
20260509230537 20 101 0.0 1.6 0.00 0.00 0.00 28 1017.9
20260509225515 20 101 0.0 1.6 0.00 0.00 0.00 29 1017.9
20260509224515 21 101 0.0 1.6 0.00 0.00 0.00 28 1017.9
20260509223516 21 94 0.0 3.2 0.00 0.00 0.00 28 1017.8
20260509222516 21 103 0.0 3.2 0.00 0.00 0.00 28 1017.7
20260509221516 21 254 0.0 1.6 0.00 0.00 0.00 28 1017.8
20260509220516 21 325 0.0 3.2 0.00 0.00 0.00 27 1017.8
20260509215537 21 243 0.0 3.2 0.00 0.00 0.00 27 1017.8
20260509214515 22 275 0.0 3.2 0.00 0.00 0.00 26 1017.7
20260509213515 23 267 1.6 8.0 0.00 0.00 0.00 25 1017.8
20260509212515 23 283 0.0 3.2 0.00 0.00 0.00 26 1018.0
20260509211516 22 210 0.0 3.2 0.00 0.00 0.00 25 1018.2
20260509210517 22 106 0.0 1.6 0.00 0.00 0.00 26 1018.2
20260509205517 22 175 0.0 1.6 0.00 0.00 0.00 25 1018.2
20260509204517 24 142 1.6 4.8 0.00 0.00 0.00 25 1018.2
20260509203515 25 198 1.6 3.2 0.00 0.00 0.00 24 1018.2
20260509202515 24 108 4.8 19.3 0.00 0.00 0.00 25 1018.2
20260509201516 25 270 1.6 4.8 0.00 0.00 0.00 22 1018.3
20260509200516 24 104 1.6 6.4 0.00 0.00 0.00 25 1018.3
20260509195516 24 289 1.6 9.7 0.00 0.00 0.00 26 1018.4
20260509194517 25 259 1.6 6.4 0.00 0.00 0.00 22 1018.5
20260509193517 24 63 3.2 9.7 0.00 0.00 0.00 23 1018.5
20260509192515 23 27 1.6 6.4 0.00 0.00 0.00 24 1018.6
20260509191535 23 105 3.2 11.3 0.00 0.00 0.00 25 1018.5
20260509190516 23 199 1.6 14.5 0.00 0.00 0.00 26 1018.6
20260509185536 23 299 1.6 4.8 0.00 0.00 0.00 26 1018.6
20260509184517 23 79 3.2 6.4 0.00 0.00 0.00 26 1018.5
20260509183517 23 21 0.0 4.8 0.00 0.00 0.00 21 1018.7
20260509182515 23 202 1.6 8.0 0.00 0.00 0.00 20 1018.8
20260509181515 22 56 0.0 8.0 0.00 0.00 0.00 21 1018.8
20260509180515 23 254 1.6 8.0 0.00 0.00 0.00 21 1018.8
20260509175516 23 159 1.6 6.4 0.00 0.00 0.00 22 1018.8
20260509174516 22 29 1.6 3.2 0.00 0.00 0.00 22 1018.9
20260509173517 22 321 1.6 8.0 0.00 0.00 0.00 23 1018.9
20260509172517 22 6 1.6 8.0 0.00 0.00 0.00 24 1019.0
20260509171535 21 28 1.6 6.4 0.00 0.00 0.00 23 1019.0
20260509170515 21 71 1.6 6.4 0.00 0.00 0.00 23 1019.1
20260509165515 21 24 1.6 8.0 0.00 0.00 0.00 23 1019.1
20260509164516 21 342 1.6 6.4 0.00 0.00 0.00 25 1019.1
20260509163516 20 284 1.6 3.2 0.00 0.00 0.00 26 1019.1
20260509162517 20 304 0.0 3.2 0.00 0.00 0.00 25 1019.0
20260509161517 20 2 1.6 4.8 0.00 0.00 0.00 26 1019.0
20260509160555 19 82 1.6 6.4 0.00 0.00 0.00 26 1018.9